Regional Weather Roundup
Issued by NWS

Home | Current Version | Previous Version | Text Only | Print | Product List | Glossary Off
Versions: 1 2 3 4 5 6 7 8 9 10 11 12 13 14 15 16 17 18 19 20 21 22 23 24 25 26 27 28 29 30 31 32 33 34 35 36 37 38 39 40 41 42 43 44 45 46 47 48 49 50

000
ASUS43 KFSD 101810
RWRSD

WEATHER ROUNDUP FOR SOUTH DAKOTA
NATIONAL WEATHER SERVICE SIOUX FALLS SD
1200 PM CST WED FEB 10 2016

NOTE: "FAIR" INDICATES FEW OR NO CLOUDS BELOW 12,000 FEET WITH NO
SIGNIFICANT WEATHER AND/OR OBSTRUCTIONS TO VISIBILITY.


SDZ001>005-009-010-012>017-101900-
NORTHWEST AND NORTH CENTRAL SOUTH DAKOTA

CITY           SKY/WX    TMP DP  RH WIND       PRES   REMARKS
BUFFALO          N/A     50  27  40 NW24      29.87R
FAITH            N/A     51  27  39 NW23G30   29.87R
MOBRIDGE       SUNNY     33  24  69 E8        29.87R WCI  26
$$

SDZ012>016-024>037-041>051-057-063-072>074-101900-
SOUTHWEST AND SOUTH CENTRAL SOUTH DAKOTA

CITY           SKY/WX    TMP DP  RH WIND       PRES   REMARKS
RAPID CTY ARPT SUNNY     63  19  18 NW31G43   29.90R
PIERRE         SUNNY     42  29  59 NW10      29.86R
CUSTER         SUNNY     56  15  20 NW13G22   29.98R
ELLSWORTH AFB  SUNNY     61  23  23 NW29G38   29.89S
PHILIP         SUNNY     56  28  34 NW23      29.88R
PINE RIDGE     SUNNY     55  25  31 W15       29.96F
SPEARFISH      FAIR      55  23  28 NW25      29.98S
WINNER         FAIR      51  28  41 NW18      29.85F
$$

SDZ004>011-016>023-039-040-101900-
NORTHEAST SOUTH DAKOTA

CITY           SKY/WX    TMP DP  RH WIND       PRES   REMARKS
ABERDEEN       CLOUDY    18  12  77 E8        29.98R WCI   8
WATERTOWN      CLOUDY    13   6  74 E10       29.97R WCI   0
BROOKINGS      LGT SNOW  13   8  81 E14       29.97R WCI  -2
SISSETON         N/A      9   5  84 SE10      30.06R WCI  -5
$$

SDZ017-020-022-023-036>040-048>070-101900-
SOUTHEAST SOUTH DAKOTA

CITY           SKY/WX    TMP DP  RH WIND       PRES   REMARKS
SIOUX FALLS    CLOUDY    17  12  80 E16       29.96F WCI   2
HURON          CLOUDY    24  18  77 SE14      29.94S WCI  12
CHAMBERLAIN    SUNNY     37  27  68 CALM      29.87F
MITCHELL       SUNNY     29  21  72 SE14      29.94R WCI  18
YANKTON        SUNNY     27  19  74 E14       29.92S WCI  15
$$

ABBREVIATIONS USED IN REMARKS
   TC - TEMPERATURE IN CELSIUS
  WCI - WIND CHILL INDEX
   HX - HEAT INDEX
  VSB - VISIBILITY




USA.gov is the U.S. government's official web portal to all federal, state and local government web resources and services.